Regional Weather Roundup
Issued by NWS

Home | Current Version | Previous Version | Text Only | Print | Product List | Glossary Off
Versions: 1 2 3 4 5 6 7 8 9 10 11 12 13 14 15 16 17 18 19 20 21 22 23 24 25 26 27 28 29 30 31 32 33 34 35 36 37 38 39 40 41 42 43 44 45 46 47 48 49 50

986
ASUS43 KBIS 271310
RWRND

NORTH DAKOTA REGIONAL WEATHER ROUNDUP
NATIONAL WEATHER SERVICE BISMARCK ND
800 AM CDT FRI MAY 27 2016

NOTE: "FAIR" INDICATES FEW OR NO CLOUDS BELOW 12,000 FEET WITH NO
SIGNIFICANT WEATHER AND/OR OBSTRUCTIONS TO VISIBILITY.


NDZ001>003-009>011-017-271400-
NORTHWEST NORTH DAKOTA

CITY           SKY/WX    TMP DP  RH WIND       PRES   REMARKS
WILLISTON      MOSUNNY   53  49  86 NW3       29.87F
MINOT          PTSUNNY   57  53  86 NW5       29.82S
MINOT AFB      PTSUNNY   55  54  95 NW10      29.81S
$$

NDZ018>021-031>035-040>046-271400-
SOUTHWEST NORTH DAKOTA

CITY           SKY/WX    TMP DP  RH WIND       PRES   REMARKS
BISMARCK       CLOUDY    52  50  93 N5        29.84R
DICKINSON      CLOUDY    46  44  93 W5        29.85S
GARRISON         N/A     51  50  96 W3        29.84R
HETTINGER ARPT CLOUDY    45  43  93 NW5       29.85F
$$

NDZ004>008-012>016-024-026-027-054-271400-
NORTHEAST NORTH DAKOTA

CITY           SKY/WX    TMP DP  RH WIND       PRES   REMARKS
GRAND FORKS    MOSUNNY   59  54  83 NE3       29.79R
GRND FRKS AFB  SUNNY     56  56 100 E3        29.80R
DEVILS LAKE    FOG       54  54 100 CALM      29.82S VSB 1/2
$$

NDZ022-023-025-028>030-036>039-047>053-271400-
SOUTHEAST NORTH DAKOTA

CITY           SKY/WX    TMP DP  RH WIND       PRES   REMARKS
FARGO          MOSUNNY   60  56  86 N9        29.77S
JAMESTOWN      SUNNY     57  54  89 N8        29.80R
$$





USA.gov is the U.S. government's official web portal to all federal, state and local government web resources and services.